www.pogodaiklimat.ru

Погода и климат >> Архив погоды >> Россия >> город Санкт-Петербург >> Санкт-Петербург


АРХИВ ПОГОДЫ в Санкт-Петербурге

Время (UTC), дата Ветер
(напр.,м/с)
 
Видим.   Явления Облачность Т
(С)
Тd
(С)
f
(%)
Тe
(С)
Тes
(С)
Комфортность P
(гПа)
Po
(гПа)
Тmin
(С)
Tmax
(С)
R
(мм)
R24
(мм)
S
(см)
18 16.01 СЗ 2 10 км {снег} 9/0
[Ac As]
-4.7 -7.7 79 -9 -9 по сезону 994.2 993.4 -3.8 0.3
21 16.01 З 2 10 км 10/10 600 м
[Sc]
-4.3 -7.0 81 -8 -8 по сезону 994.6 993.8
00 17.01 ЮЗ 1 10 км 10/10 300 м
[Sc]
-5.2 -8.9 75 -7 -7 по сезону 993.8 993.0
03 17.01 В 2 4000 м слаб. снег 10/10 300 м
[Sc]
-4.9 -7.7 81 -9 -9 по сезону 990.7 989.9 -5.5 0.0
06 17.01 ЮВ 3 1000 м снег {ливн. осадки} 10/10 200 м
[Frnb Ns]
-5.0 -6.2 91 -11 -11 по сезону 985.2 984.4 -5.5 3 31
09 17.01 ЮВ 3 2000 м снег {ливн. осадки} 10/10 200 м
[Frnb Ns]
-4.2 -5.4 91 -10 -10 по сезону 981.4 980.6
12 17.01 штиль 0 1000 м снег {ливн. осадки} 10/10 200 м
[Frnb Ns]
-0.7 -1.5 94 -2 -2 тепло 978.0 977.3
15 17.01 ЮЗ 2 10 км слаб. дождь со снегом 10/10 100 м
[Frnb Ns]
+0.6 +0.1 96 -3 -3 по сезону 976.7 976.0 17
18 17.01 З 3 10 км {снег, дождь} 10/10 100 м
[St]
-0.2 -0.8 96 -5 -5 по сезону 978.2 977.5 +0.7 16
21 17.01 З 3 10 км 10/10 200 м
[St]
-3.7 -5.1 90 -9 -9 по сезону 982.9 982.1
00 18.01 З 4 10 км в посл. час снег 10/10 600 м
[Sc diur, vesp]
-6.4 -9.7 77 -13 -13 прохладно 986.6 985.8
03 18.01 З 3 10 км 4/4 600 м
[Sc diur, vesp]
-9.4 -13.0 75 -15 -15 холодно 990.7 989.9 -9.4 2
06 18.01 З 2 10 км {снег} 4/4 600 м
[Sc]
-9.2 -12.9 74 -14 -14 прохладно 992.8 992.0 -9.6 0.0 38
09 18.01 З 1 10 км 5/5 600 м
[Sc]
-9.7 -12.4 81 -12 -12 прохладно 994.8 994.0
12 18.01 СЗ 1 10 км слаб. снег 9/9 300 м
[Sc]
-7.9 -10.3 83 -10 -10 по сезону 995.8 995.0
15 18.01 З 1 10 км {снег} 3/3 600 м
[Sc]
-10.9 -12.9 85 -13 -13 прохладно 997.2 996.4 0.4
18 18.01 ЮЗ 1 10 км {снег} 4/4 300 м
[Sc]
-11.5 -13.1 88 -14 -14 холодно 998.2 997.3 -7.8 0.7
21 18.01 ЮЗ 1 10 км ясно -16.7 -19.0 82 -19 -19 очень
холодно
999.7 998.8
00 19.01 ЮЗ 1 10 км 4/0
[Ac trans]
-16.3 -18.5 83 -19 -19 очень
холодно
1001.1 1000.3
03 19.01 штиль 0 10 км в посл. час снег 10/0
[As trans]
-16.1 -18.3 83 -16 -16 холодно 1002.4 1001.6 -17.8 0.0
06 19.01 ЮЗ 1 10 км {снег} 6/6 200 м
[Sc]
-16.0 -18.2 83 -19 -19 очень
холодно
1003.9 1003.1 -17.8 0.0 38
09 19.01 З 1 10 км 10/10 100 м
[Sc]
-11.6 -13.3 87 -14 -14 прохладно 1005.7 1004.9
12 19.01 ЮЗ 2 10 км слаб. снег 10/10 600 м
[Sc]
-7.5 -8.7 91 -12 -12 прохладно 1005.6 1004.8
15 19.01 ЮЗ 2 10 км {снег} 10/10 300 м
[Sc]
-6.0 -7.1 92 -10 -10 по сезону 1005.2 1004.4 0.3
18 19.01 ЮЗ 2 10 км 10/10 300 м
[Sc]
-5.0 -6.6 89 -9 -9 по сезону 1004.7 1003.9 -4.9 0.3
21 19.01 Ю 2 10 км 8/8 300 м
[Sc]
-4.0 -6.8 81 -8 -8 по сезону 1002.8 1002.0
00 20.01 ЮВ 1 1000 м снег 10/10 100 м
[Frnb Ns]
-3.9 -5.0 92 -6 -6 по сезону 999.4 998.6
03 20.01 ЮЗ 3 10 км {снег} 9/9 600 м
[Sc]
-2.7 -5.2 83 -8 -8 по сезону 997.2 996.4 -6.0 3
06 20.01 ЮЗ 3 4000 м слаб. снег 8/8 300 м
[Sc]
-3.5 -5.3 87 -9 -9 по сезону 996.6 995.8 -4.9 3 40
09 20.01 З 2 4000 м слаб. снег 10/10 300 м
[Frnb Ns]
-3.0 -5.2 85 -7 -7 по сезону 997.3 996.5
12 20.01 СЗ 3 10 км {ливн. осадки, снег} 9/9 600 м
[Sc]
-4.1 -6.4 84 -9 -9 по сезону 998.9 998.1
15 20.01 З 3 10 км {ливн. осадки, снег} 3/0
[Ac trans]
-12.0 -14.8 80 -18 -18 очень
холодно
1004.5 1003.7 0.6
18 20.01 СЗ 2 10 км {ливн. осадки, снег} 8/0
[Ac trans]
-14.0 -16.9 79 -19 -19 очень
холодно
1005.7 1004.9 -3.0 1
21 20.01 З 1 10 км 6/0
[Ac trans]
-14.4 -17.5 77 -17 -17 очень
холодно
1007.2 1006.4
00 21.01 СЗ 2 10 км 4/0
[Ac trans]
-15.1 -17.8 80 -20 -20 очень
холодно
1007.8 1007.0
03 21.01 СЗ 2 10 км 9/0
[Ac trans]
-19.6 -22.0 81 -25 -25 очень
холодно
1008.7 1007.9 -20.4 0.7
06 21.01 СЗ 2 10 км слаб. снег 9/9 300 м
[Sc]
-18.4 -21.7 75 -24 -24 очень
холодно
1010.1 1009.3 -20.4 1 41
09 21.01 СЗ 2 10 км {снег} ясно -19.0 -22.6 73 -25 -24 очень
холодно
1012.0 1011.2
12 21.01 ЮЗ 2 10 км {снег} ясно -18.5 -22.4 71 -24 -24 очень
холодно
1012.9 1012.1
15 21.01 СЗ 1 10 км в посл. час снег 8/8 660 м
[Sc]
-17.0 -19.6 80 -20 -20 очень
холодно
1014.1 1013.3 0.8
18 21.01 З 1 10 км {снег} 9/9 1000 м
[Sc]
-18.8 -21.2 81 -22 -22 очень
холодно
1014.9 1014.1 -16.9 0.0
21 21.01 З 1 20 км {снег} 3/0
[Ac trans]
-18.2 -20.8 80 -21 -21 очень
холодно
1015.8 1015.0
00 22.01 ЮЗ 1 10 км {снег} ясно -19.7 -22.3 80 -23 -23 очень
холодно
1016.5 1015.7
03 22.01 штиль 0 10 км 4/0
[Ci fib]
-21.9 -24.8 77 -22 -22 очень
холодно
1016.7 1015.9 -22.5 0.0
06 22.01 ЮЗ 1 10 км 10/0
[Ac trans]
-18.1 -20.6 81 -21 -21 очень
холодно
1016.0 1015.2 -22.5 0.0
09 22.01 ЮЗ 1 10 км 8/0
[Ac As]
-12.2 -13.9 87 -14 -14 прохладно 1015.9 1015.1
12 22.01 ЮЗ 2 10 км 6/0
[Ac As]
-11.1 -13.4 83 -16 -15 холодно 1015.6 1014.8
15 22.01 З 1 4000 м слаб. снег 10/10 600 м
[Sc diur, vesp]
-10.3 -12.1 87 -13 -13 прохладно 1015.5 1014.6 0.3
18 22.01 СЗ 1 10 км {снег} 10/10 600 м
[Sc diur, vesp]
-13.2 -15.5 83 -16 -16 холодно 1015.3 1014.5 -10.1 0.3
21 22.01 ЮЗ 1 10 км 10/10 300 м
[Sc diur, vesp]
-13.1 -15.1 85 -15 -15 холодно 1015.5 1014.7
00 23.01 ЮЗ 1 10 км 9/9 600 м
[Sc diur, vesp]
-12.2 -15.4 77 -14 -14 прохладно 1015.3 1014.5
03 23.01 Ю 2 10 км ясно -14.4 -18.0 74 -19 -19 очень
холодно
1014.3 1013.5 -15.4 0.0
06 23.01 Ю 2 10 км 10/3 600 м
[Sc As trans]
-14.5 -17.2 80 -19 -19 очень
холодно
1013.7 1012.9 -15.6 42
09 23.01 ЮВ 1 4000 м слаб. снег 10/10 200 м
[Frnb Ns]
-12.3 -14.5 84 -15 -15 холодно 1013.2 1012.4
12 23.01 Ю 2 10 км {снег} 4/0
[Ac trans Ci fib]
-10.6 -13.5 79 -15 -15 холодно 1011.9 1011.1

 

Местоположение метеостанции Санкт-Петербург (город Санкт-Петербург, Россия): широта 59.97 долгота 30.30 высота над уровнем моря 6 м.

В архиве по умолчанию представлена погода в Санкт-Петербурге за последнюю неделю. Архивные данные за месяц целиком и за предыдущие месяцы, начиная с января 2011 года, Вы можете получить, выбрав интересующий диапазон дат из раскрывающегося списка и нажав кнопку "Ввод!".


*Определитесь, кто Вы:
робот инопланетянин человек

Внимание! Время в таблицах - всемирное. Для получения местного времени необходимо прибавить поправку, которая равна 3 ч.

Смотрите также архив погоды в соседних городах и на ближайших метеорологических станциях:

Погода в Лисьем Носу (город Санкт-Петербург, Россия) (19 км)
Погода в Воейково (город Санкт-Петербург, Россия) (22 км)
Погода в Ломоносове (город Санкт-Петербург, Россия) (29 км)
Погода в Кронштадте (город Санкт-Петербург, Россия) (30 км)
Погода в Шлиссельбурге (Ленинградская область, Россия) (39 км)
Погода в Рощино (Ленинградская область, Россия) (48 км)
Погода в Шепелево (Ленинградская область, Россия) (58 км)
Погода в Сосново (Ленинградская область, Россия) (65 км)
Погода в Сосновом Бору (Ленинградская область, Россия) (65 км)
Погода в Белогорке (Ленинградская область, Россия) (70 км)

Пояснения к столбцам:

Ветер - указаны скорость ветра в м/с - средняя за 10 мин, порывы в срок и между сроками (в фигурных скобках) и направление, откуда дует ветер: С - северный, СВ - северо-восточный, В - восточный, ЮВ - юго-восточный, Ю - южный, ЮЗ - юго-западный, З - западный, СЗ - северо-западный.
Видимость - горизонтальная дальность видимости в метрах или километрах. При видимости от 1 до 10 км при отсутствии осадков обычно наблюдается дымка, при ухудшении видимости до 1 км и менее - туман. В сухую погоду видимость может ухудшаться дымом, пылью или мглою.
Явления - указаны атмосферные явления, наблюдавшиеся в срок или в последний час перед сроком; фигурными скобками обозначены явления, наблюдавшиеся между сроками (за 1-3 часа до срока); квадратными скобками обозначены град или гололедные отложения с указанием их диаметра в мм.
Облачность - указаны через наклонную черту общая и нижняя облачность в баллах и высота нижней границы облаков в метрах; квадратными скобками обозначены формы облаков: Ci - перистые, Cs - перисто-слоистые, Cc - перисто-кучевые, Ac - высококучевые, As - высокослоистые, Sc - слоисто-кучевые, Ns - слоисто-дождевые, Cu - кучевые, Cb - кучево-дождевые. Подробнее классификацию облаков см. в Атласе облаков (PDF).
T - Температура воздуха - температура, измеренная на высоте 2 м над землей.
Td - Температура точки росы - температура, при понижении до которой содержащийся в воздухе водяной пар достигнет насыщения.
f - Относительная влажность воздуха - влажноcть воздуха, измеренная на высоте 2 м над землей.
Te - Эффективная температура - температура, которую ощущает одетый по сезону человек в тени. Характеристика душности погоды. При расчете учитывается влияние влажности воздуха и скорости ветра на теплоощущения человека.
Tes - Эффективная температура на солнце - температура, которую ощущает человек, с поправкой на солнечный нагрев. Характеристика знойности погоды. Зависит от высоты солнца над горизонтом, облачности и скорости ветра. Ночью, в пасмурную погоду, а также при ветре 12 м/с и более поправка равна нулю.
P - Атмосферное давление - приведенное к уровню моря атмосферное давление.
Po - Атмосферное давление - измеренное на уровне метеостанции атмосферное давление.
Tmin - Минимальная температура - минимум температуры воздуха на высоте 2 м над землей.
Tmax - Максимальная температура - максимум температуры воздуха на высоте 2 м над землей.
R - Количество осадков - Количество выпавших осадков за период времени, мм. При наведении курсора мыши на число - период времени, за который выпало указанное количество осадков.
R24 - Количество осадков - Количество выпавших осадков за 24 часа, мм.
S - Снежный покров - Высота снежного покрова, см. При наведении курсора мыши на число - состояние снежного покрова и степень покрытия местности в баллах.